Year,Month,Day,Hour,Minute,Value (Times are PST for temperature in C)
2021,08,12,00,00,25.60
2021,08,12,00,01,25.60
2021,08,12,00,02,25.60
2021,08,12,00,03,25.50
2021,08,12,00,04,25.50
2021,08,12,00,05,25.50
2021,08,12,00,06,25.40
2021,08,12,00,07,25.40
2021,08,12,00,08,25.40
2021,08,12,00,09,25.40
2021,08,12,00,10,25.40
2021,08,12,00,11,25.40
2021,08,12,00,12,25.40
2021,08,12,00,13,25.40
2021,08,12,00,14,25.30
2021,08,12,00,15,25.30
2021,08,12,00,16,25.30
2021,08,12,00,17,25.30
2021,08,12,00,18,25.30
2021,08,12,00,19,25.30
2021,08,12,00,20,25.20
2021,08,12,00,21,25.20
2021,08,12,00,22,25.20
2021,08,12,00,23,25.20
2021,08,12,00,24,25.10
2021,08,12,00,25,25.10
2021,08,12,00,26,25.10
2021,08,12,00,27,25.10
2021,08,12,00,28,25.00
2021,08,12,00,29,25.00
2021,08,12,00,30,25.00
2021,08,12,00,31,25.00
2021,08,12,00,32,25.00
2021,08,12,00,33,24.90
2021,08,12,00,34,24.90
2021,08,12,00,35,24.90
2021,08,12,00,36,24.90
2021,08,12,00,37,24.90
2021,08,12,00,38,24.90
2021,08,12,00,39,24.90
2021,08,12,00,40,24.90
2021,08,12,00,41,24.90
2021,08,12,00,42,24.80
2021,08,12,00,43,24.80
2021,08,12,00,44,24.80
2021,08,12,00,45,24.80
2021,08,12,00,46,24.80
2021,08,12,00,47,24.70
2021,08,12,00,48,24.70
2021,08,12,00,49,24.70
2021,08,12,00,50,24.70
2021,08,12,00,51,24.70
2021,08,12,00,52,24.70
2021,08,12,00,53,24.70
2021,08,12,00,54,24.70
2021,08,12,00,55,24.70
2021,08,12,00,56,24.60
2021,08,12,00,57,24.60
2021,08,12,00,58,24.60
2021,08,12,00,59,24.60
2021,08,12,01,00,24.60
2021,08,12,01,01,24.50
2021,08,12,01,02,24.50
2021,08,12,01,03,24.50
2021,08,12,01,04,24.40
2021,08,12,01,05,24.40
2021,08,12,01,06,24.40
2021,08,12,01,07,24.40
2021,08,12,01,08,24.40
2021,08,12,01,09,24.30
2021,08,12,01,10,24.30
2021,08,12,01,11,24.30
2021,08,12,01,12,24.30
2021,08,12,01,13,24.30
2021,08,12,01,14,24.30
2021,08,12,01,15,24.20
2021,08,12,01,16,24.20
2021,08,12,01,17,24.20
2021,08,12,01,18,24.20
2021,08,12,01,19,24.20
2021,08,12,01,20,24.20
2021,08,12,01,21,24.10
2021,08,12,01,22,24.10
2021,08,12,01,23,24.10
2021,08,12,01,24,24.10
2021,08,12,01,25,24.10
2021,08,12,01,26,24.10
2021,08,12,01,27,24.10
2021,08,12,01,28,24.00
2021,08,12,01,29,24.00
2021,08,12,01,30,24.00
2021,08,12,01,31,24.00
2021,08,12,01,32,23.90
2021,08,12,01,33,23.90
2021,08,12,01,34,23.90
2021,08,12,01,35,23.80
2021,08,12,01,36,23.80
2021,08,12,01,37,23.80
2021,08,12,01,38,23.80
2021,08,12,01,39,23.80
2021,08,12,01,40,23.80
2021,08,12,01,41,23.70
2021,08,12,01,42,23.70
2021,08,12,01,43,23.70
2021,08,12,01,44,23.70
2021,08,12,01,45,23.70
2021,08,12,01,46,23.70
2021,08,12,01,47,23.70
2021,08,12,01,48,23.70
2021,08,12,01,49,23.70
2021,08,12,01,50,23.60
2021,08,12,01,51,23.70
2021,08,12,01,52,23.60
2021,08,12,01,53,23.60
2021,08,12,01,54,23.60
2021,08,12,01,55,23.60
2021,08,12,01,56,23.60
2021,08,12,01,57,23.50
2021,08,12,01,58,23.50
2021,08,12,01,59,23.50
2021,08,12,02,00,23.50
2021,08,12,02,01,23.50
2021,08,12,02,02,23.40
2021,08,12,02,03,23.40
2021,08,12,02,04,23.40
2021,08,12,02,05,23.40
2021,08,12,02,06,23.40
2021,08,12,02,07,23.40
2021,08,12,02,08,23.40
2021,08,12,02,09,23.40
2021,08,12,02,10,23.40
2021,08,12,02,11,23.40
2021,08,12,02,12,23.40
2021,08,12,02,13,23.40
2021,08,12,02,14,23.30
2021,08,12,02,15,23.30
2021,08,12,02,16,23.30
2021,08,12,02,17,23.30
2021,08,12,02,18,23.30
2021,08,12,02,19,23.30
2021,08,12,02,20,23.30
2021,08,12,02,21,23.30
2021,08,12,02,22,23.30
2021,08,12,02,23,23.30
2021,08,12,02,24,23.30
2021,08,12,02,25,23.30
2021,08,12,02,26,23.30
2021,08,12,02,27,23.30
2021,08,12,02,28,23.30
2021,08,12,02,29,23.30
2021,08,12,02,30,23.30
2021,08,12,02,31,23.30
2021,08,12,02,32,23.20
2021,08,12,02,33,23.20
2021,08,12,02,34,23.20
2021,08,12,02,35,23.20
2021,08,12,02,36,23.20
2021,08,12,02,37,23.20
2021,08,12,02,38,23.10
2021,08,12,02,39,23.20
2021,08,12,02,40,23.20
2021,08,12,02,41,23.20
2021,08,12,02,42,23.20
2021,08,12,02,43,23.20
2021,08,12,02,44,23.20
2021,08,12,02,45,23.20
2021,08,12,02,46,23.20
2021,08,12,02,47,23.20
2021,08,12,02,48,23.20
2021,08,12,02,49,23.30
2021,08,12,02,50,23.30
2021,08,12,02,51,23.30
2021,08,12,02,52,23.30
2021,08,12,02,53,23.40
2021,08,12,02,54,23.50
2021,08,12,02,55,23.50
2021,08,12,02,56,23.60
2021,08,12,02,57,23.60
2021,08,12,02,58,23.60
2021,08,12,02,59,23.60
2021,08,12,03,00,23.60
2021,08,12,03,01,23.60
2021,08,12,03,02,23.60
2021,08,12,03,03,23.60
2021,08,12,03,04,23.60
2021,08,12,03,05,23.60
2021,08,12,03,06,23.60
2021,08,12,03,07,23.60
2021,08,12,03,08,23.60
2021,08,12,03,09,23.60
2021,08,12,03,10,23.70
2021,08,12,03,11,23.70
2021,08,12,03,12,23.70
2021,08,12,03,13,23.70
2021,08,12,03,14,23.70
2021,08,12,03,15,23.70
2021,08,12,03,16,23.70
2021,08,12,03,17,23.70
2021,08,12,03,18,23.70
2021,08,12,03,19,23.70
2021,08,12,03,20,23.70
2021,08,12,03,21,23.70
2021,08,12,03,22,23.70
2021,08,12,03,23,23.70
2021,08,12,03,24,23.70
2021,08,12,03,25,23.70
2021,08,12,03,26,23.80
2021,08,12,03,27,23.80
2021,08,12,03,28,23.80
2021,08,12,03,29,23.80
2021,08,12,03,30,23.80
2021,08,12,03,31,23.90
2021,08,12,03,32,23.90
2021,08,12,03,33,24.00
2021,08,12,03,34,24.00
2021,08,12,03,35,24.10
2021,08,12,03,36,24.20
2021,08,12,03,37,24.20
2021,08,12,03,38,24.30
2021,08,12,03,39,24.30
2021,08,12,03,40,24.30
2021,08,12,03,41,24.40
2021,08,12,03,42,24.40
2021,08,12,03,43,24.50
2021,08,12,03,44,24.50
2021,08,12,03,45,24.50
2021,08,12,03,46,24.50
2021,08,12,03,47,24.50
2021,08,12,03,48,24.50
2021,08,12,03,49,24.50
2021,08,12,03,50,24.50
2021,08,12,03,51,24.50
2021,08,12,03,52,24.50
2021,08,12,03,53,24.60
2021,08,12,03,54,24.60
2021,08,12,03,55,24.60
2021,08,12,03,56,24.70
2021,08,12,03,57,24.70
2021,08,12,03,58,24.70
2021,08,12,03,59,24.70
2021,08,12,04,00,24.70
2021,08,12,04,01,24.70
2021,08,12,04,02,24.80
2021,08,12,04,03,24.80
2021,08,12,04,04,24.80
2021,08,12,04,05,24.80
2021,08,12,04,06,24.80
2021,08,12,04,07,24.80
2021,08,12,04,08,24.80
2021,08,12,04,09,24.80
2021,08,12,04,10,24.80
2021,08,12,04,11,24.80
2021,08,12,04,12,24.80
2021,08,12,04,13,24.80
2021,08,12,04,14,24.80
2021,08,12,04,15,24.80
2021,08,12,04,16,24.80
2021,08,12,04,17,24.80
2021,08,12,04,18,24.70
2021,08,12,04,19,24.70
2021,08,12,04,20,24.70
2021,08,12,04,21,24.70
2021,08,12,04,22,24.70
2021,08,12,04,23,24.70
2021,08,12,04,24,24.70
2021,08,12,04,25,24.70
2021,08,12,04,26,24.70
2021,08,12,04,27,24.70
2021,08,12,04,28,24.70
2021,08,12,04,29,24.70
2021,08,12,04,30,24.70
2021,08,12,04,31,24.80
2021,08,12,04,32,24.80
2021,08,12,04,33,24.80
2021,08,12,04,34,24.90
2021,08,12,04,35,24.90
2021,08,12,04,36,24.90
2021,08,12,04,37,24.90
2021,08,12,04,38,24.90
2021,08,12,04,39,24.90
2021,08,12,04,40,24.90
2021,08,12,04,41,24.90
2021,08,12,04,42,24.90
2021,08,12,04,43,24.90
2021,08,12,04,44,24.90
2021,08,12,04,45,24.90
2021,08,12,04,46,24.90
2021,08,12,04,47,24.90
2021,08,12,04,48,24.90
2021,08,12,04,49,24.90
2021,08,12,04,50,24.80
2021,08,12,04,51,24.80
2021,08,12,04,52,24.80
2021,08,12,04,53,24.70
2021,08,12,04,54,24.70
2021,08,12,04,55,24.70
2021,08,12,04,56,24.60
2021,08,12,04,57,24.60
2021,08,12,04,58,24.60
2021,08,12,04,59,24.60
2021,08,12,05,00,24.60
2021,08,12,05,01,24.60
2021,08,12,05,02,24.60
2021,08,12,05,03,24.60
2021,08,12,05,04,24.60
2021,08,12,05,05,24.60
2021,08,12,05,06,24.60
2021,08,12,05,07,24.60
2021,08,12,05,08,24.50
2021,08,12,05,09,24.50
2021,08,12,05,10,24.50
2021,08,12,05,11,24.50
2021,08,12,05,12,24.50
2021,08,12,05,13,24.50
2021,08,12,05,14,24.50
2021,08,12,05,15,24.50
2021,08,12,05,16,24.50
2021,08,12,05,17,24.50
2021,08,12,05,18,24.40
2021,08,12,05,19,24.40
2021,08,12,05,20,24.40
2021,08,12,05,21,24.30
2021,08,12,05,22,24.30
2021,08,12,05,23,24.30
2021,08,12,05,24,24.30
2021,08,12,05,25,24.20
2021,08,12,05,26,24.20
2021,08,12,05,27,24.20
2021,08,12,05,28,24.10
2021,08,12,05,29,24.10
2021,08,12,05,30,24.10
2021,08,12,05,31,24.10
2021,08,12,05,32,24.10
2021,08,12,05,33,24.00
2021,08,12,05,34,24.00
2021,08,12,05,35,23.90
2021,08,12,05,36,23.90
2021,08,12,05,37,23.90
2021,08,12,05,38,23.80
2021,08,12,05,39,23.80
2021,08,12,05,40,23.80
2021,08,12,05,41,23.80
2021,08,12,05,42,23.70
2021,08,12,05,43,23.70
2021,08,12,05,44,23.70
2021,08,12,05,45,23.70
2021,08,12,05,46,23.70
2021,08,12,05,47,23.70
2021,08,12,05,48,23.70
2021,08,12,05,49,23.70
2021,08,12,05,50,23.60
2021,08,12,05,51,23.60
2021,08,12,05,52,23.60
2021,08,12,05,53,23.60
2021,08,12,05,54,23.60
2021,08,12,05,55,23.60
2021,08,12,05,56,23.60
2021,08,12,05,57,23.60
2021,08,12,05,58,23.60
2021,08,12,05,59,23.60
2021,08,12,06,00,23.60
2021,08,12,06,01,23.60
2021,08,12,06,02,23.60
2021,08,12,06,03,23.60
2021,08,12,06,04,23.60
2021,08,12,06,05,23.60
2021,08,12,06,06,23.60
2021,08,12,06,07,23.60
2021,08,12,06,08,23.60
2021,08,12,06,09,23.60
2021,08,12,06,10,23.60
2021,08,12,06,11,23.60
2021,08,12,06,12,23.60
2021,08,12,06,13,23.60
2021,08,12,06,14,23.70
2021,08,12,06,15,23.70
2021,08,12,06,16,23.60
2021,08,12,06,17,23.60
2021,08,12,06,18,23.60
2021,08,12,06,19,23.60
2021,08,12,06,20,23.60
2021,08,12,06,21,23.60
2021,08,12,06,22,23.60
2021,08,12,06,23,23.50
2021,08,12,06,24,23.50
2021,08,12,06,25,23.50
2021,08,12,06,26,23.50
2021,08,12,06,27,23.50
2021,08,12,06,28,23.40
2021,08,12,06,29,23.40
2021,08,12,06,30,23.40
2021,08,12,06,31,23.40
2021,08,12,06,32,23.50
2021,08,12,06,33,23.50
2021,08,12,06,34,23.40
2021,08,12,06,35,23.40
2021,08,12,06,36,23.40
2021,08,12,06,37,23.40
2021,08,12,06,38,23.40
2021,08,12,06,39,23.50
2021,08,12,06,40,23.50
2021,08,12,06,41,23.40
2021,08,12,06,42,23.40
2021,08,12,06,43,23.40
2021,08,12,06,44,23.40
2021,08,12,06,45,23.40
2021,08,12,06,46,23.40
2021,08,12,06,47,23.40
2021,08,12,06,48,23.40
2021,08,12,06,49,23.40
2021,08,12,06,50,23.40
2021,08,12,06,51,23.40
2021,08,12,06,52,23.40
2021,08,12,06,53,23.40
2021,08,12,06,54,23.40
2021,08,12,06,55,23.40
2021,08,12,06,56,23.40
2021,08,12,06,57,23.40
2021,08,12,06,58,23.40
2021,08,12,06,59,23.40
2021,08,12,07,00,23.40
2021,08,12,07,01,23.30
2021,08,12,07,02,23.30
2021,08,12,07,03,23.30
2021,08,12,07,04,23.30
2021,08,12,07,05,23.30
2021,08,12,07,06,23.30
2021,08,12,07,07,23.30
2021,08,12,07,08,23.30
2021,08,12,07,09,23.30
2021,08,12,07,10,23.30
2021,08,12,07,11,23.30
2021,08,12,07,12,23.30
2021,08,12,07,13,23.30
2021,08,12,07,14,23.30
2021,08,12,07,15,23.30
2021,08,12,07,16,23.40
2021,08,12,07,17,23.40
2021,08,12,07,18,23.40
2021,08,12,07,19,23.40
2021,08,12,07,20,23.50
2021,08,12,07,21,23.50
2021,08,12,07,22,23.60
2021,08,12,07,23,23.60
2021,08,12,07,24,23.70
2021,08,12,07,25,23.80
2021,08,12,07,26,23.80
2021,08,12,07,27,23.90
2021,08,12,07,28,23.90
2021,08,12,07,29,24.00
2021,08,12,07,30,24.10
2021,08,12,07,31,24.10
2021,08,12,07,32,24.10
2021,08,12,07,33,24.20
2021,08,12,07,34,24.20
2021,08,12,07,35,24.20
2021,08,12,07,36,24.20
2021,08,12,07,37,24.30
2021,08,12,07,38,24.30
2021,08,12,07,39,24.30
2021,08,12,07,40,24.40
2021,08,12,07,41,24.40
2021,08,12,07,42,24.50
2021,08,12,07,43,24.50
2021,08,12,07,44,24.60
2021,08,12,07,45,24.70
2021,08,12,07,46,24.80
2021,08,12,07,47,24.90
2021,08,12,07,48,25.00
2021,08,12,07,49,25.10
2021,08,12,07,50,25.10
2021,08,12,07,51,25.20
2021,08,12,07,52,25.30
2021,08,12,07,53,25.40
2021,08,12,07,54,25.40
2021,08,12,07,55,25.50
2021,08,12,07,56,25.60
2021,08,12,07,57,25.70
2021,08,12,07,58,25.70
2021,08,12,07,59,25.80
2021,08,12,08,00,25.80
2021,08,12,08,01,25.90
2021,08,12,08,02,25.90
2021,08,12,08,03,26.00
2021,08,12,08,04,26.00
2021,08,12,08,05,26.10
2021,08,12,08,06,26.20
2021,08,12,08,07,26.20
2021,08,12,08,08,26.30
2021,08,12,08,09,26.30
2021,08,12,08,10,26.30
2021,08,12,08,11,26.40
2021,08,12,08,12,26.40
2021,08,12,08,13,26.50
2021,08,12,08,14,26.50
2021,08,12,08,15,26.60
2021,08,12,08,16,26.60
2021,08,12,08,17,26.60
2021,08,12,08,18,26.60
2021,08,12,08,19,26.70
2021,08,12,08,20,26.70
2021,08,12,08,21,26.70
2021,08,12,08,22,26.70
2021,08,12,08,23,26.80
2021,08,12,08,24,26.80
2021,08,12,08,25,26.90
2021,08,12,08,26,26.90
2021,08,12,08,27,26.90
2021,08,12,08,28,27.00
2021,08,12,08,29,27.00
2021,08,12,08,30,27.10
2021,08,12,08,31,27.10
2021,08,12,08,32,27.20
2021,08,12,08,33,27.20
2021,08,12,08,34,27.30
2021,08,12,08,35,27.30
2021,08,12,08,36,27.40
2021,08,12,08,37,27.40
2021,08,12,08,38,27.40
2021,08,12,08,39,27.50
2021,08,12,08,40,27.60
2021,08,12,08,41,27.60
2021,08,12,08,42,27.70
2021,08,12,08,43,27.70
2021,08,12,08,44,27.70
2021,08,12,08,45,27.80
2021,08,12,08,46,27.80
2021,08,12,08,47,27.90
2021,08,12,08,48,27.90
2021,08,12,08,49,28.00
2021,08,12,08,50,28.00
2021,08,12,08,51,28.10
2021,08,12,08,52,28.20
2021,08,12,08,53,28.20
2021,08,12,08,54,28.20
2021,08,12,08,55,28.20
2021,08,12,08,56,28.30
2021,08,12,08,57,28.20
2021,08,12,08,58,28.20
2021,08,12,08,59,28.30
2021,08,12,09,00,28.30
2021,08,12,09,01,28.30
2021,08,12,09,02,28.30
2021,08,12,09,03,28.40
2021,08,12,09,04,28.40
2021,08,12,09,05,28.40
2021,08,12,09,06,28.40
2021,08,12,09,07,28.40
2021,08,12,09,08,28.40
2021,08,12,09,09,28.40
2021,08,12,09,10,28.50
2021,08,12,09,11,28.50
2021,08,12,09,12,28.40
2021,08,12,09,13,28.40
2021,08,12,09,14,28.40
2021,08,12,09,15,28.40
2021,08,12,09,16,28.40
2021,08,12,09,17,28.40
2021,08,12,09,18,28.30
2021,08,12,09,19,28.30
2021,08,12,09,20,28.20
2021,08,12,09,21,28.20
2021,08,12,09,22,28.20
2021,08,12,09,23,28.30
2021,08,12,09,24,28.30
2021,08,12,09,25,28.40
2021,08,12,09,26,28.50
2021,08,12,09,27,28.60
2021,08,12,09,28,28.70
2021,08,12,09,29,28.80
2021,08,12,09,30,28.80
2021,08,12,09,31,28.80
2021,08,12,09,32,28.90
2021,08,12,09,33,28.90
2021,08,12,09,34,28.90
2021,08,12,09,35,29.00
2021,08,12,09,36,29.10
2021,08,12,09,37,29.20
2021,08,12,09,38,29.30
2021,08,12,09,39,29.30
2021,08,12,09,40,29.40
2021,08,12,09,41,29.40
2021,08,12,09,42,29.30
2021,08,12,09,43,29.40
2021,08,12,09,44,29.40
2021,08,12,09,45,29.40
2021,08,12,09,46,29.40
2021,08,12,09,47,29.40
2021,08,12,09,48,29.50
2021,08,12,09,49,29.40
2021,08,12,09,50,29.20
2021,08,12,09,51,29.00
2021,08,12,09,52,28.80
2021,08,12,09,53,28.70
2021,08,12,09,54,28.60
2021,08,12,09,55,28.40
2021,08,12,09,56,28.20
2021,08,12,09,57,28.00
2021,08,12,09,58,27.80
2021,08,12,09,59,27.70
2021,08,12,10,00,27.60
2021,08,12,10,01,27.60
2021,08,12,10,02,27.60
2021,08,12,10,03,27.70
2021,08,12,10,04,27.70
2021,08,12,10,05,27.80
2021,08,12,10,06,27.80
2021,08,12,10,07,27.80
2021,08,12,10,08,27.80
2021,08,12,10,09,27.80
2021,08,12,10,10,27.90
2021,08,12,10,11,27.90
2021,08,12,10,12,27.90
2021,08,12,10,13,27.80
2021,08,12,10,14,27.70
2021,08,12,10,15,27.50
2021,08,12,10,16,27.20
2021,08,12,10,17,27.00
2021,08,12,10,18,26.90
2021,08,12,10,19,26.80
2021,08,12,10,20,26.70
2021,08,12,10,21,26.70
2021,08,12,10,22,26.70
2021,08,12,10,23,26.70
2021,08,12,10,24,26.80
2021,08,12,10,25,26.80
2021,08,12,10,26,26.80
2021,08,12,10,27,26.70
2021,08,12,10,28,26.50
2021,08,12,10,29,26.40
2021,08,12,10,30,26.20
2021,08,12,10,31,26.10
2021,08,12,10,32,26.00
2021,08,12,10,33,25.90
2021,08,12,10,34,25.80
2021,08,12,10,35,25.80
2021,08,12,10,36,25.80
2021,08,12,10,37,25.80
2021,08,12,10,38,25.90
2021,08,12,10,39,26.00
2021,08,12,10,40,26.10
2021,08,12,10,41,26.20
2021,08,12,10,42,26.20
2021,08,12,10,43,26.10
2021,08,12,10,44,26.10
2021,08,12,10,45,26.00
2021,08,12,10,46,25.80
2021,08,12,10,47,25.80
2021,08,12,10,48,25.70
2021,08,12,10,49,25.70
2021,08,12,10,50,25.70
2021,08,12,10,51,25.70
2021,08,12,10,52,25.70
2021,08,12,10,53,25.70
2021,08,12,10,54,25.80
2021,08,12,10,55,25.90
2021,08,12,10,56,25.90
2021,08,12,10,57,26.00
2021,08,12,10,58,26.00
2021,08,12,10,59,26.00
2021,08,12,11,00,26.10
2021,08,12,11,01,26.20
2021,08,12,11,02,26.20
2021,08,12,11,03,26.20
2021,08,12,11,04,26.20
2021,08,12,11,05,26.20
2021,08,12,11,06,26.30
2021,08,12,11,07,26.30
2021,08,12,11,08,26.40
2021,08,12,11,09,26.50
2021,08,12,11,10,26.50
2021,08,12,11,11,26.60
2021,08,12,11,12,26.60
2021,08,12,11,13,26.60
2021,08,12,11,14,26.60
2021,08,12,11,15,26.50
2021,08,12,11,16,26.50
2021,08,12,11,17,26.40
2021,08,12,11,18,26.30
2021,08,12,11,19,26.10
2021,08,12,11,20,26.00
2021,08,12,11,21,25.80
2021,08,12,11,22,25.80
2021,08,12,11,23,25.70
2021,08,12,11,24,25.60
2021,08,12,11,25,25.40
2021,08,12,11,26,25.40
2021,08,12,11,27,25.30
2021,08,12,11,28,25.30
2021,08,12,11,29,25.30
2021,08,12,11,30,25.30
2021,08,12,11,31,25.20
2021,08,12,11,32,25.10
2021,08,12,11,33,25.00
2021,08,12,11,34,25.00
2021,08,12,11,35,25.00
2021,08,12,11,36,25.00
2021,08,12,11,37,25.00
2021,08,12,11,38,25.00
2021,08,12,11,39,25.10
2021,08,12,11,40,25.20
2021,08,12,11,41,25.20
2021,08,12,11,42,25.30
2021,08,12,11,43,25.30
2021,08,12,11,44,25.30
2021,08,12,11,45,25.30
2021,08,12,11,46,25.30
2021,08,12,11,47,25.40
2021,08,12,11,48,25.40
2021,08,12,11,49,25.30
2021,08,12,11,50,25.20
2021,08,12,11,51,25.20
2021,08,12,11,52,25.20
2021,08,12,11,53,25.20
2021,08,12,11,54,25.10
2021,08,12,11,55,25.20
2021,08,12,11,56,25.20
2021,08,12,11,57,25.30
2021,08,12,11,58,25.30
2021,08,12,11,59,25.20
2021,08,12,12,00,25.20
2021,08,12,12,01,25.20
2021,08,12,12,02,25.20
2021,08,12,12,03,25.20
2021,08,12,12,04,25.20
2021,08,12,12,05,25.30
2021,08,12,12,06,25.30
2021,08,12,12,07,25.30
2021,08,12,12,08,25.30
2021,08,12,12,09,25.30
2021,08,12,12,10,25.30
2021,08,12,12,11,25.40
2021,08,12,12,12,25.40
2021,08,12,12,13,25.50
2021,08,12,12,14,25.60
2021,08,12,12,15,25.70
2021,08,12,12,16,25.80
2021,08,12,12,17,25.90
2021,08,12,12,18,26.00
2021,08,12,12,19,26.20
2021,08,12,12,20,26.30
2021,08,12,12,21,26.40
2021,08,12,12,22,26.40
2021,08,12,12,23,26.50
2021,08,12,12,24,26.50
2021,08,12,12,25,26.50
2021,08,12,12,26,26.60
2021,08,12,12,27,26.60
2021,08,12,12,28,26.70
2021,08,12,12,29,26.70
2021,08,12,12,30,26.80
2021,08,12,12,31,26.80
2021,08,12,12,32,26.80
2021,08,12,12,33,26.80
2021,08,12,12,34,26.80
2021,08,12,12,35,26.90
2021,08,12,12,36,27.00
2021,08,12,12,37,27.10
2021,08,12,12,38,27.20
2021,08,12,12,39,27.20
2021,08,12,12,40,27.20
2021,08,12,12,41,27.10
2021,08,12,12,42,27.10
2021,08,12,12,43,27.10
2021,08,12,12,44,27.20
2021,08,12,12,45,27.30
2021,08,12,12,46,27.30
2021,08,12,12,47,27.30
2021,08,12,12,48,27.30
2021,08,12,12,49,27.20
2021,08,12,12,50,27.30
2021,08,12,12,51,27.30
2021,08,12,12,52,27.20
2021,08,12,12,53,27.10
2021,08,12,12,54,27.10
2021,08,12,12,55,27.10
2021,08,12,12,56,27.10
2021,08,12,12,57,27.20
2021,08,12,12,58,27.20
2021,08,12,12,59,27.30
2021,08,12,13,00,27.40
2021,08,12,13,01,27.50
2021,08,12,13,02,27.60
2021,08,12,13,03,27.70
2021,08,12,13,04,27.90
2021,08,12,13,05,28.10
2021,08,12,13,06,28.30
2021,08,12,13,07,28.40
2021,08,12,13,08,28.60
2021,08,12,13,09,28.70
2021,08,12,13,10,28.80
2021,08,12,13,11,29.00
2021,08,12,13,12,29.20
2021,08,12,13,13,29.30
2021,08,12,13,14,29.40
2021,08,12,13,15,29.50
2021,08,12,13,16,29.50
2021,08,12,13,17,29.60
2021,08,12,13,18,29.60
2021,08,12,13,19,29.70
2021,08,12,13,20,29.70
2021,08,12,13,21,29.80
2021,08,12,13,22,29.90
2021,08,12,13,23,29.90
2021,08,12,13,24,30.00
2021,08,12,13,25,30.00
2021,08,12,13,26,30.10
2021,08,12,13,27,30.10
2021,08,12,13,28,30.20
2021,08,12,13,29,30.30
2021,08,12,13,30,30.30
2021,08,12,13,31,30.40
2021,08,12,13,32,30.50
2021,08,12,13,33,30.60
2021,08,12,13,34,30.80
2021,08,12,13,35,30.90
2021,08,12,13,36,31.00
2021,08,12,13,37,31.10
2021,08,12,13,38,31.20
2021,08,12,13,39,31.30
2021,08,12,13,40,31.30
2021,08,12,13,41,31.30
2021,08,12,13,42,31.40
2021,08,12,13,43,31.60
2021,08,12,13,44,31.70
2021,08,12,13,45,31.80
2021,08,12,13,46,31.90
2021,08,12,13,47,32.00
2021,08,12,13,48,32.20
2021,08,12,13,49,32.30
2021,08,12,13,50,32.40
2021,08,12,13,51,32.60
2021,08,12,13,52,32.70
2021,08,12,13,53,32.70
2021,08,12,13,54,32.70
2021,08,12,13,55,32.70
2021,08,12,13,56,32.60
2021,08,12,13,57,32.50
2021,08,12,13,58,32.40
2021,08,12,13,59,32.20
2021,08,12,14,00,32.00
2021,08,12,14,01,31.80
2021,08,12,14,02,31.80
2021,08,12,14,03,31.70
2021,08,12,14,04,31.70
2021,08,12,14,05,31.50
2021,08,12,14,06,31.50
2021,08,12,14,07,31.40
2021,08,12,14,08,31.30
2021,08,12,14,09,31.30
2021,08,12,14,10,31.30
2021,08,12,14,11,31.30
2021,08,12,14,12,31.40
2021,08,12,14,13,31.50
2021,08,12,14,14,31.50
2021,08,12,14,15,31.40
2021,08,12,14,16,31.40
2021,08,12,14,17,31.40
2021,08,12,14,18,31.40
2021,08,12,14,19,31.40
2021,08,12,14,20,31.50
2021,08,12,14,21,31.50
2021,08,12,14,22,31.70
2021,08,12,14,23,31.90
2021,08,12,14,24,32.00
2021,08,12,14,25,32.10
2021,08,12,14,26,32.20
2021,08,12,14,27,32.40
2021,08,12,14,28,32.40
2021,08,12,14,29,32.30
2021,08,12,14,30,32.10
2021,08,12,14,31,32.00
2021,08,12,14,32,31.90
2021,08,12,14,33,31.80
2021,08,12,14,34,31.80
2021,08,12,14,35,31.80
2021,08,12,14,36,31.80
2021,08,12,14,37,31.90
2021,08,12,14,38,32.00
2021,08,12,14,39,32.00
2021,08,12,14,40,32.00
2021,08,12,14,41,31.90
2021,08,12,14,42,31.80
2021,08,12,14,43,31.70
2021,08,12,14,44,31.60
2021,08,12,14,45,31.60
2021,08,12,14,46,31.60
2021,08,12,14,47,31.60
2021,08,12,14,48,31.70
2021,08,12,14,49,31.70
2021,08,12,14,50,31.80
2021,08,12,14,51,31.90
2021,08,12,14,52,32.00
2021,08,12,14,53,32.20
2021,08,12,14,54,32.30
2021,08,12,14,55,32.30
2021,08,12,14,56,32.30
2021,08,12,14,57,32.30
2021,08,12,14,58,32.30
2021,08,12,14,59,32.20
2021,08,12,15,00,32.20
2021,08,12,15,01,32.30
2021,08,12,15,02,32.30
2021,08,12,15,03,32.30
2021,08,12,15,04,32.40
2021,08,12,15,05,32.40
2021,08,12,15,06,32.40
2021,08,12,15,07,32.50
2021,08,12,15,08,32.50
2021,08,12,15,09,32.50
2021,08,12,15,10,32.50
2021,08,12,15,11,32.50
2021,08,12,15,12,32.40
2021,08,12,15,13,32.40
2021,08,12,15,14,32.40
2021,08,12,15,15,32.50
2021,08,12,15,16,32.40
2021,08,12,15,17,32.40
2021,08,12,15,18,32.40
2021,08,12,15,19,32.40
2021,08,12,15,20,32.40
2021,08,12,15,21,32.40
2021,08,12,15,22,32.50
2021,08,12,15,23,32.60
2021,08,12,15,24,32.70
2021,08,12,15,25,32.70
2021,08,12,15,26,32.80
2021,08,12,15,27,32.80
2021,08,12,15,28,32.90
2021,08,12,15,29,33.00
2021,08,12,15,30,33.00
2021,08,12,15,31,33.10
2021,08,12,15,32,33.20
2021,08,12,15,33,33.30
2021,08,12,15,34,33.40
2021,08,12,15,35,33.50
2021,08,12,15,36,33.40
2021,08,12,15,37,33.40
2021,08,12,15,38,33.40
2021,08,12,15,39,33.30
2021,08,12,15,40,33.10
2021,08,12,15,41,32.90
2021,08,12,15,42,32.80
2021,08,12,15,43,32.70
2021,08,12,15,44,32.60
2021,08,12,15,45,32.60
2021,08,12,15,46,32.60
2021,08,12,15,47,32.60
2021,08,12,15,48,32.70
2021,08,12,15,49,32.80
2021,08,12,15,50,32.80
2021,08,12,15,51,32.80
2021,08,12,15,52,32.90
2021,08,12,15,53,32.90
2021,08,12,15,54,32.90
2021,08,12,15,55,32.90
2021,08,12,15,56,33.00
2021,08,12,15,57,33.00
2021,08,12,15,58,33.10
2021,08,12,15,59,33.20
2021,08,12,16,00,33.40
2021,08,12,16,01,33.50
2021,08,12,16,02,33.60
2021,08,12,16,03,33.70
2021,08,12,16,04,33.80
2021,08,12,16,05,33.80
2021,08,12,16,06,33.90
2021,08,12,16,07,34.00
2021,08,12,16,08,34.10
2021,08,12,16,09,34.20
2021,08,12,16,10,34.20
2021,08,12,16,11,34.10
2021,08,12,16,12,34.00
2021,08,12,16,13,33.90
2021,08,12,16,14,33.80
2021,08,12,16,15,33.80
2021,08,12,16,16,33.80
2021,08,12,16,17,33.90
2021,08,12,16,18,34.00
2021,08,12,16,19,34.10
2021,08,12,16,20,34.20
2021,08,12,16,21,34.30
2021,08,12,16,22,34.50
2021,08,12,16,23,34.70
2021,08,12,16,24,34.90
2021,08,12,16,25,35.00
2021,08,12,16,26,35.20
2021,08,12,16,27,35.20
2021,08,12,16,28,35.20
2021,08,12,16,29,35.10
2021,08,12,16,30,35.10
2021,08,12,16,31,35.10
2021,08,12,16,32,35.00
2021,08,12,16,33,35.00
2021,08,12,16,34,34.90
2021,08,12,16,35,34.90
2021,08,12,16,36,34.80
2021,08,12,16,37,34.70
2021,08,12,16,38,34.60
2021,08,12,16,39,34.40
2021,08,12,16,40,34.30
2021,08,12,16,41,34.30
2021,08,12,16,42,34.20
2021,08,12,16,43,34.10
2021,08,12,16,44,34.00
2021,08,12,16,45,33.70
2021,08,12,16,46,33.40
2021,08,12,16,47,33.20
2021,08,12,16,48,32.90
2021,08,12,16,49,32.80
2021,08,12,16,50,32.60
2021,08,12,16,51,32.50
2021,08,12,16,52,32.40
2021,08,12,16,53,32.30
2021,08,12,16,54,32.30
2021,08,12,16,55,32.30
2021,08,12,16,56,32.40
2021,08,12,16,57,32.40
2021,08,12,16,58,32.40
2021,08,12,16,59,32.40
2021,08,12,17,00,32.40
2021,08,12,17,01,32.50
2021,08,12,17,02,32.50
2021,08,12,17,03,32.60
2021,08,12,17,04,32.60
2021,08,12,17,05,32.60
2021,08,12,17,06,32.60
2021,08,12,17,07,32.70
2021,08,12,17,08,32.70
2021,08,12,17,09,32.70
2021,08,12,17,10,32.70
2021,08,12,17,11,32.70
2021,08,12,17,12,32.70
2021,08,12,17,13,32.60
2021,08,12,17,14,32.60
2021,08,12,17,15,32.60
2021,08,12,17,16,32.60
2021,08,12,17,17,32.60
2021,08,12,17,18,32.60
2021,08,12,17,19,32.50